{"data":{"norad_id":60266,"epoch":"2026-05-25T04:00:03.998880Z","epoch_age_seconds":53838,"freshness":"FRESH","line1":"1 60266U 24131M   26145.16671295  .00053196  00000+0  17151-2 0  9996","line2":"2 60266  53.1607  57.3881 0001262  79.5332 334.1614 15.31675338  5869","mean_motion":15.31675338,"eccentricity":0.0001262,"inclination_deg":53.1607,"raan_deg":57.3881,"arg_perigee_deg":79.5332,"mean_anomaly_deg":334.1614,"bstar":0.0017151,"rev_number":586,"period_min":94.014701697835,"perigee_km":469.9491747961,"apogee_km":471.67784990542,"semimajor_km":6848.9505123508,"source":"CELESTRAK","updated_at":"2026-05-25T13:38:19.200586Z"}}